South Reno (Wolf Run), Nevada Weather observations

Data are for observation ending at time listed.
 Day   Time    Ave.   Ave.  Ave.  Vector   Max.   Stn.    Total    Solar   Ave.  
  of    of     Air    Rel.  Wind   Wind    Wind   Baro.  Precip.   Rad.    Soil  
Year   Day     Temp.  Hum.  Speed  Dir.    Gust   Pres.                    Temp. 
2026   (PST)    F      %     mph   deg.    mph     mb.     in.     W/m2     F   
------------------------------------------------------------------------------
 126   14:30   77.5    18    2.4   344      7.5  99999.0    0.00      22    64.3
 126   14:40   78.0    18    3.1    64      7.4  99999.0    0.00      22    64.6
 126   14:50   76.5    15    3.5    62      7.6  99999.0    0.00      21    64.8
 126   15:00   77.7    16    2.3     1      6.3  99999.0    0.00      21    65.0
 126   15:10   79.9    17    0.9    46      5.0  99999.0    0.00      21    65.3
 126   15:20   79.6    16    1.2    88      7.1  99999.0    0.00      21    65.5
 126   15:30   79.2    14    1.1   347      5.2  99999.0    0.00      20    65.7
 126   15:40   78.5    15    2.2     9      6.9  99999.0    0.00      19    65.9
 126   15:50   77.4    15    1.6   222      3.7  99999.0    0.00      18    66.1
 126   16:00   77.4    17    0.8   252      3.5  99999.0    0.00      18    66.3
 126   16:10   78.6    15    2.4    18      5.9  99999.0    0.00      18    66.5
 126   16:20   79.4    17    0.7   267      4.6  99999.0    0.00      16    66.6
 126   16:30   77.6    15    2.5     0      6.7  99999.0    0.00      17    66.8
 126   16:40   77.5    16    1.8     9      6.5  99999.0    0.00      16    66.9
 126   16:50   79.1    16    1.4   348      5.6  99999.0    0.00      15    67.1
 126   17:00   77.3    16    2.6     3      6.6  99999.0    0.00      15    67.2
 126   17:10   75.8    17    2.7     4      6.8  99999.0    0.00      12    67.3
 126   17:20   75.2    17    2.5    27      6.8  99999.0    0.00      11    67.4
 126   17:30   75.2    17    3.0    14      6.9  99999.0    0.00      12    67.5
 126   17:40   75.7    16    1.8    16      6.5  99999.0    0.00      11    67.5
 126   17:50   76.0    18    1.5     6      4.5  99999.0    0.00      11    67.6
 126   18:00   75.5    18    1.5   351      5.3  99999.0    0.00      10    67.6
 126   18:10   73.6    19    2.5    15      8.3  99999.0    0.00      11    67.6
 126   18:20   72.1    20    2.7    11      6.4  99999.0    0.00       9    67.6
 126   18:30   71.1    21    1.5    12      4.2  99999.0    0.00       8    67.6
 126   18:40   69.8    23    0.5   354      5.0  99999.0    0.00       7    67.6
 126   18:50   67.5    27    0.0     0      0.0  99999.0    0.00       6    67.6
 126   19:00   65.2    30    0.0     0      0.0  99999.0    0.00       5    67.6
 126   19:10   63.6    33    0.0     0      0.0  99999.0    0.00       2    67.5
 126   19:20   62.1    36    0.0     0      0.0  99999.0    0.00       1    67.5
 126   19:30   61.0    37    0.0   241      0.7  99999.0    0.00       0    67.4
 126   19:40   59.5    44    0.0   260      1.0  99999.0    0.00       0    67.4
 126   19:50   58.6    44    0.8   249      3.3  99999.0    0.00       0    67.3
 126   20:00   59.5    39    1.9   249      4.7  99999.0    0.00       0    67.2
 126   20:10   60.5    35    1.8   252      5.6  99999.0    0.00       0    67.1
 126   20:20   60.9    34    1.7   252      5.2  99999.0    0.00       0    67.0
 126   20:30   60.9    34    0.9   114      3.9  99999.0    0.00       0    66.9
 126   20:40   58.2    46    0.6   132      3.5  99999.0    0.00       0    66.7
 126   20:50   54.0    55    0.4    60      1.6  99999.0    0.00       0    66.5
 126   21:00   55.1    54    0.0     0      0.0  99999.0    0.00       0    66.4
 126   21:10   55.3    55    0.1   205      1.2  99999.0    0.00       1    66.3
 126   21:20   55.0    52    0.4   242      1.6  99999.0    0.00       1    66.2
 126   21:30   55.0    53    2.6   224      5.6  99999.0    0.00       1    65.8
 126   21:40   58.5    48    2.1   228      5.0  99999.0    0.00       1    65.4
 126   21:50   56.4    54    0.6   248      3.1  99999.0    0.00       0    65.3
 126   22:00   55.3    58    0.0   249      0.6  99999.0    0.00       1    65.2
 126   22:10   55.1    57    0.0     0      0.0  99999.0    0.00       0    65.1
 126   22:20   54.5    58    0.0     0      0.0  99999.0    0.00       0    65.0
 126   22:30   54.4    58    0.1   246      1.5  99999.0    0.00       0    64.9
 126   22:40   54.0    58    0.2   299      2.9  99999.0    0.00       0    64.8
 126   22:50   55.2    53    0.7   337      3.6  99999.0    0.00       1    64.7
 126   23:00   55.0    53    0.7   231      2.0  99999.0    0.00       0    64.5
 126   23:10   55.7    50    2.7   236      4.9  99999.0    0.00       1    64.4
 126   23:20   55.5    51    2.6   241      4.7  99999.0    0.00       1    64.3
 126   23:30   54.5    53    2.8   239      5.5  99999.0    0.00       1    64.2
 126   23:40   54.9    52    3.6   238      6.5  99999.0    0.00       0    64.1
 126   23:50   55.2    53    2.0   240      5.3  99999.0    0.00       0    64.0
 127    0:00   55.6    52    2.1   241      4.7  99999.0    0.00       1    63.9
 127    0:10   56.5    49    3.2   240      5.0  99999.0    0.00       0    63.8
 127    0:20   55.5    52    2.0   245      4.7  99999.0    0.00       0    63.7
 127    0:30   55.4    52    3.0   242      4.6  99999.0    0.00       0    63.6
 127    0:40   55.8    50    3.5   240      5.5  99999.0    0.00       0    63.5
 127    0:50   55.7    50    3.0   242      5.5  99999.0    0.00       0    63.5
 127    1:00   55.9    49    3.5   243      6.0  99999.0    0.00       0    63.4
 127    1:10   55.6    51    0.6   244      4.1  99999.0    0.00       0    63.3
 127    1:20   55.1    51    2.2   241      6.0  99999.0    0.00       0    63.2
 127    1:30   56.0    49    4.7   239      7.3  99999.0    0.00       0    63.1
 127    1:40   55.6    52    3.3   239      6.7  99999.0    0.00       0    63.0
 127    1:50   54.4    54    1.8   241      4.6  99999.0    0.00       0    63.0
 127    2:00   54.5    54    2.9   238      5.4  99999.0    0.00       0    62.9
 127    2:10   54.3    56    1.9   243      4.7  99999.0    0.00       0    62.9
 127    2:20   53.7    57    2.0   242      4.5  99999.0    0.00       0    62.8
 127    2:30   53.0    60    1.9   243      4.4  99999.0    0.00       0    62.7
 127    2:40   53.1    59    1.4   241      4.2  99999.0    0.00       0    62.6
 127    2:50   53.0    58    1.8   237      4.5  99999.0    0.00       0    62.6
 127    3:00   52.9    59    1.1   245      4.5  99999.0    0.00       0    62.5
 127    3:10   52.7    59    0.3   246      1.8  99999.0    0.00       0    62.4
 127    3:20   52.4    60    1.3   240      3.4  99999.0    0.00       0    62.4
 127    3:30   52.4    61    1.4   241      4.6  99999.0    0.00       0    62.3
 127    3:40   51.7    63    0.7   242      2.1  99999.0    0.00       0    62.2
 127    3:50   51.4    64    0.2   238      1.8  99999.0    0.00       0    62.2
 127    4:00   51.2    65    0.5   243      3.9  99999.0    0.00       0    62.1
 127    4:10   50.8    66    0.0     0      0.0  99999.0    0.00       0    62.0
 127    4:20   50.6    66    0.9   244      3.8  99999.0    0.00       0    62.0
 127    4:30   50.4    66    1.3   244      3.9  99999.0    0.00       0    61.9
 127    4:40   50.5    65    0.5   232      3.2  99999.0    0.00       1    61.8
 127    4:50   50.5    65    2.1   234      4.7  99999.0    0.00       2    61.8
 127    5:00   51.3    63    3.0   240      4.7  99999.0    0.00       3    61.7
 127    5:10   51.5    62    0.8   242      4.1  99999.0    0.00       3    61.6
 127    5:20   51.3    63    0.3   232      2.0  99999.0    0.00       3    61.6
 127    5:30   52.1    62    1.6   234      4.6  99999.0    0.00       3    61.5
 127    5:40   52.7    62    1.3   236      3.6  99999.0    0.00       4    61.4
 127    5:50   54.8    58    0.8   234      3.9  99999.0    0.00       4    61.3
 127    6:00   57.5    55    0.0     0      0.0  99999.0    0.00       4    61.2
 127    6:10   60.5    50    0.0     0      0.0  99999.0    0.00       4    61.1
 127    6:20   63.6    44    0.0     0      0.0  99999.0    0.00       5    61.0
 127    6:30   64.8    42    0.0     0      0.0  99999.0    0.00       5    60.9
 127    6:40   64.5    46    1.2    62      4.2  99999.0    0.00       5    60.8
 127    6:50   60.9    54    2.0    55      4.0  99999.0    0.00       5    60.8
 127    7:00   61.1    52    1.2    67      2.5  99999.0    0.00       4    60.7
 127    7:10   61.7    51    1.2    67      2.7  99999.0    0.00       4    60.7
 127    7:20   61.5    49    1.3    40      3.3  99999.0    0.00       4    60.6
 127    7:30   63.1    48    0.8    68      2.0  99999.0    0.00       5    60.6
 127    7:40   63.5    48    1.4    31      4.0  99999.0    0.00       5    60.5
 127    7:50   63.7    47    1.7    26      4.7  99999.0    0.00       6    60.5
 127    8:00   65.0    46    0.8    10      4.4  99999.0    0.00       6    60.4
 127    8:10   66.9    42    1.8    57      5.1  99999.0    0.00       7    60.4
 127    8:20   67.1    41    1.3    69      3.7  99999.0    0.00       7    60.3
 127    8:30   67.4    40    1.2    48      4.9  99999.0    0.00       7    60.2
 127    8:40   68.8    40    1.1    62      3.9  99999.0    0.00       7    60.2
 127    8:50   69.5    39    1.1    53      3.1  99999.0    0.00       8    60.2
 127    9:00   69.4    37    1.3    22      4.4  99999.0    0.00       8    60.1
 127    9:10   70.1    37    1.4    50      5.7  99999.0    0.00       8    60.1
 127    9:20   70.8    33    2.5    35      5.8  99999.0    0.00       8    60.0
 127    9:30   70.6    33    1.2    18      4.5  99999.0    0.00       8    60.0
 127    9:40   72.6    31    1.6    62      5.8  99999.0    0.00       9    59.9
 127    9:50   72.1    30    1.1    46      4.7  99999.0    0.00       9    59.9
 127   10:00   72.0    28    2.4    21      6.3  99999.0    0.00       9    59.9
 127   10:10   72.9    28    1.6    41      4.8  99999.0    0.00       9    59.9
 127   10:20   73.8    25    2.1    35      5.8  99999.0    0.00       9    59.9
 127   10:30   74.2    24    2.5    93      6.9  99999.0    0.00       9    59.8
 127   10:40   76.9    24    0.7   146      4.2  99999.0    0.00      10    59.8
 127   10:50   78.3    22    1.3   114      5.3  99999.0    0.00      10    59.8
 127   11:00   76.9    22    2.4    73      9.4  99999.0    0.00      11    59.8
 127   11:10   76.5    22    1.7   105      7.6  99999.0    0.00      13    60.0
 127   11:20   76.8    24    2.2   107      8.0  99999.0    0.00      15    60.1
 127   11:30   77.3    21    3.5    59      7.1  99999.0    0.00      16    60.3
 127   11:40   76.3    21    2.3    29      7.2  99999.0    0.00      16    60.7
 127   11:50   78.0    23    1.7   146      6.4  99999.0    0.00      18    60.9
 127   12:00   77.5    22    2.2   156      9.1  99999.0    0.00      17    60.9
 127   12:10   76.6    23    2.8   203      7.0  99999.0    0.00      14    61.2
 127   12:20   75.8    23    4.0   210      8.0  99999.0    0.00      16    61.6
 127   12:30   76.7    22    3.8   196      7.0  99999.0    0.00      15    61.8
 127   12:40   77.5    21    4.5   180      9.3  99999.0    0.00      15    62.1
 127   12:50   77.9    21    4.8   186     11.2  99999.0    0.00      17    62.3
 127   13:00   78.2    21    4.4   167     11.2  99999.0    0.00      17    62.6
 127   13:10   79.0    17    5.3     5     10.2  99999.0    0.00      15    62.9
 127   13:20   80.0    16    4.1   337     12.7  99999.0    0.00      13    63.1
 127   13:30   79.8    15    5.0   340     14.3  99999.0    0.00      15    63.4
 127   13:40   81.3    16    3.1   319     11.5  99999.0    0.00      12    63.6
 127   13:50   80.7    15    3.9   329     10.7  99999.0    0.00      10    64.0
 127   14:00   80.5    14    4.7   327     12.6  99999.0    0.00      10    64.3
 127   14:10   80.6    18    1.5   277      8.8  99999.0    0.00      10    64.6
 127   14:20   80.7    19    2.4    21      9.0  99999.0    0.00      11    64.9

Return to South Reno, Nevada graphs page.


Western Regional Climate Center,wrcc@dri.edu